Regional Weather Roundup
Issued by NWS

Home | Current Version | Previous Version | Graphics & Text | Print | Product List | Glossary On
Versions: 1 2 3 4 5 6 7 8 9 10 11 12 13 14 15 16 17 18 19 20 21 22 23 24 25 26 27 28 29 30 31 32 33 34 35 36 37 38 39 40 41 42 43 44 45 46 47 48 49 50
000
ASUS43 KDMX 290107
RWRIA

WEATHER ROUNDUP FOR IOWA
NATIONAL WEATHER SERVICE DES MOINES IA
800 PM CDT THU AUG 28 2014

NOTE: "FAIR" INDICATES FEW OR NO CLOUDS BELOW 12,000 FEET WITH NO
SIGNIFICANT WEATHER AND/OR OBSTRUCTIONS TO VISIBILITY.

* - THESE STATIONS ARE NOT NWS STATIONS...THUS NOT UNDER NWS
QUALITY CONTROL.  THEY ALSO DO NOT REPORT WEATHER SUCH
AS PRECIPITATION OR FOG.

IAZ001>003-012>014-020>022-031>034-043>046-290200-
   NORTHWEST IOWA

CITY           SKY/WX    TMP DP  RH WIND       PRES   REMARKS
CARROLL *      MOCLDY    75  72  88 SE5       29.86F
DENISON *      MOCLDY    75  75 100 VRB6      29.83F
LE MARS *      PTCLDY    75  73  94 SE6       29.83S
ORANGE CITY *  MOCLDY    75  70  83 SE3       29.84F
SHELDON *      MOCLDY    70  70 100 NE6       29.84F
SIOUX CITY     CLOUDY    77  72  84 SE6       29.81F
SPENCER        CLOUDY    72  70  93 SE9       29.86F
STORM LAKE *   CLOUDY    73  73 100 SE6       29.86F
$$

IAZ055>058-069>071-079>083-090>094-290200-
   SOUTHWEST IOWA

CITY           SKY/WX    TMP DP  RH WIND       PRES   REMARKS
ATLANTIC *     CLOUDY    77  75  94 SE5       29.86R
AUDUBON *      CLEAR     77  73  88 CALM      29.87F FOG
CLARINDA *     CLOUDY    79  77  94 NW9G16    29.87R HX  83
COUNCIL BLFS * PTCLDY    77  75  94 CALM      29.82F
CRESTON *      PTCLDY    77  75  94 SE8       29.88S
HARLAN  *      PTCLDY    77  75  94 CALM      29.88F
LAMONI         PTCLDY    77  73  87 E5        29.87F
RED OAK *      CLOUDY    77  73  88 SE18      29.86R
SHENANDOAH *   MOCLDY    73  72  94 E8        29.84F
$$

IAZ047>049-059>061-072>074-084-290200-
   CENTRAL IOWA

CITY           SKY/WX    TMP DP  RH WIND       PRES   REMARKS
AMES           PTCLDY    72  70  93 SE7       29.89F
ANKENY *       CLEAR     73  72  94 E5        29.88F
CHARITON *     PTCLDY    75  73  94 SE6       29.89F
DES MOINES     MOCLDY    76  71  85 E8        29.87F
GRINNELL*      CLOUDY    72  68  88 SE6       29.92F
KNOXVILLE *    MOCLDY    72  70  94 E6        29.89F
MARSHALLTOWN   CLOUDY    72  69  90 SE9       29.90F
PELLA *        MOCLDY    72  70  94 E5        29.91F
PERRY *          N/A     75  73  94 E3        29.88S FOG
$$

IAZ004>006-015-016-023>025-035-036-290200-
   NORTH CENTRAL IOWA

CITY           SKY/WX    TMP DP  RH WIND       PRES   REMARKS
ALGONA *       MOCLDY    72  72 100 SE8       29.88F
CLARION *      PTCLDY    72  72 100 SE7       29.89F
ESTHERVILLE    CLOUDY    66  66 100 E6        29.88F FOG
FORT DODGE *   PTCLDY    73  70  88 SE6       29.89S
MASON CITY     CLOUDY    69  68  96 SE12      29.92F FOG
FOREST CITY *  CLOUDY    70  70 100 SE7       29.90F FOG
IOWA FALLS *   CLOUDY    72  68  88 E5        29.92F
$$

IAZ007>011-017>019-026>030-037>042-050>054-066-290200-
   NORTHEAST IOWA

CITY           SKY/WX    TMP DP  RH WIND       PRES   REMARKS
CEDAR RAPIDS   CLOUDY    70  69  97 SE7       29.93F
CHARLES CITY * CLOUDY    68  68 100 SE7       29.94S FOG
CLINTON *      CLOUDY    66  64  94 SE10      29.99F
DECORAH *      LGT RAIN  66  66 100 SE6       29.95S
DUBUQUE        CLOUDY    68  65  90 SE10      29.99S
MONTICELLO *   CLOUDY    68  68 100 SE10      29.95F
OELWEIN *      CLOUDY    68  66  94 SE12      29.95F
WATERLOO       CLOUDY    70  66  87 SE9       29.92S
$$

IAZ064-065-067-068-078-290200-
   EAST CENTRAL IOWA

CITY           SKY/WX    TMP DP  RH WIND       PRES   REMARKS
DAVENPORT      CLOUDY    69  66  90 E13       29.96F
IOWA CITY      CLOUDY    69  69 100 SE6       29.94F
MT. PLEASANT * MOCLDY    70  68  94 SE7       29.95R
MUSCATINE *    CLOUDY    70  68  94 SE6       29.95R
QUAD CITIES    CLOUDY    69  67  93 E8        29.96F
$$

IAZ062-063-075>077-085>089-095>099-290200-
   SOUTHEAST IOWA

CITY           SKY/WX    TMP DP  RH WIND       PRES   REMARKS
BURLINGTON     CLOUDY    71  70  96 E5        29.95R
FAIRFIELD *    CLEAR     70  68  94 E7        29.94R
FORT MADISON * CLEAR     72  72 100 E5        29.96S
KEOKUK *       PTCLDY    72  70  94 E9G15     29.94S
OSKALOOSA *      N/A     70  68  94 SE6       29.92S
CENTERVILLE *  CLEAR     73  73 100 E6        29.92F
OTTUMWA        CLEAR     70  68  93 SE6       29.91F
WASHINGTON *   PTCLDY    70  70 100 SE7       29.94R
$$

ABBREVIATIONS USED IN REMARKS
   TC - TEMPERATURES IN CELSIUS
  WCI - WIND CHILL INDEX
   HX - HEAT INDEX
  VSB - VISIBILITY
$$




USA.gov is the U.S. government's official web portal to all federal, state and local government web resources and services.